Date String (YYYY-MM-DD hh:mm:ss) UTC,Instrument flags,Ambient pressure (hPa),Sample flow (lpm),Bypass flow (lpm),Sample temperature (°C),Ambient temperature (°C),ASC tube jacket temperature (°C),LED temperature (°C),Box temperature (°C),Sample RH (%),Span deviation,Mass concentration (μg/m³),Mass concentration (μg/m³),Mass concentration (μg/m³)
DateTimeUTC,F1_M11,P_M11,Q1_M11,Q2_M11,T1_M11,T2_M11,T3_M11,T4_M11,T5_M11,U1_M11,ZSPAN_M11,X2_M11,X0_M11,X1_M11
2021-11-14 11:00:00,,0830.2,4.99,0.00,22.4,21.8,00.0,31.5,24.3,15.5,0000.0,0003.22,0013.44,0000.94
2021-11-14 11:01:00,,0830.2,5.01,0.00,22.4,21.8,00.0,31.5,24.3,15.5,0000.0,0003.28,0013.55,0000.97
2021-11-14 11:02:00,,0830.2,4.99,0.00,22.5,21.8,00.0,31.5,24.3,15.5,0000.0,0003.28,0013.63,0000.99
2021-11-14 11:03:00,,0830.3,5.01,0.00,22.5,21.9,00.0,31.5,24.3,15.5,0000.0,0003.24,0013.52,0001.00
2021-11-14 11:04:00,,0830.4,4.99,0.00,22.5,21.9,00.0,31.5,24.3,15.5,0000.0,0003.24,0013.92,0001.00
2021-11-14 11:05:00,,0830.4,5.01,0.00,22.5,21.9,00.0,31.5,24.4,15.4,0000.0,0003.27,0014.33,0001.03
2021-11-14 11:06:00,,0830.5,4.98,0.00,22.6,22.0,00.0,31.5,24.4,15.4,0000.0,0003.28,0014.48,0001.05
2021-11-14 11:07:00,,0830.3,5.01,0.00,22.6,22.0,00.0,31.5,24.5,15.4,0000.0,0003.25,0013.86,0001.06
2021-11-14 11:08:00,,0830.1,4.99,0.00,22.6,22.1,00.0,31.5,24.5,15.3,0000.0,0003.24,0013.95,0001.09
2021-11-14 11:09:00,,0830.0,5.00,0.00,22.6,22.1,00.0,31.5,24.5,15.3,0000.0,0003.22,0014.20,0001.10
2021-11-14 11:10:00,,0830.1,5.01,0.00,22.7,22.1,00.0,31.6,24.5,15.3,0000.0,0003.27,0014.93,0001.13
2021-11-14 11:11:00,,0830.1,4.99,0.00,22.7,22.1,00.0,31.6,24.6,15.3,0000.0,0003.31,0013.44,0001.13
2021-11-14 11:12:00,,0830.1,5.00,0.00,22.7,22.1,00.0,31.6,24.6,15.3,0000.0,0003.31,0013.70,0001.13
2021-11-14 11:13:00,,0830.1,5.00,0.00,22.7,22.1,00.0,31.6,24.6,15.3,0000.0,0003.36,0013.86,0001.13
2021-11-14 11:14:00,,0830.1,5.01,0.00,22.7,22.1,00.0,31.6,24.6,15.3,0000.0,0003.41,0014.90,0001.13
2021-11-14 11:15:00,,0830.0,4.99,0.00,22.7,22.1,00.0,31.6,24.6,15.3,0000.0,0003.40,0015.10,0001.13
2021-11-14 11:16:00,,0830.0,5.00,0.00,22.7,22.1,00.0,31.6,24.6,15.2,0000.0,0003.36,0014.69,0001.13
2021-11-14 11:17:00,,0830.1,5.00,0.00,22.8,22.2,00.0,31.7,24.6,15.2,0000.0,0003.36,0014.70,0001.14
2021-11-14 11:18:00,,0830.1,5.01,0.00,22.8,22.2,00.0,31.7,24.6,15.2,0000.0,0003.42,0015.30,0001.14
2021-11-14 11:19:00,,0830.3,4.99,0.00,22.8,22.2,00.0,31.7,24.6,15.3,0000.0,0003.41,0014.88,0001.15
2021-11-14 11:20:00,,0830.4,5.01,0.00,22.8,22.2,00.0,31.7,24.7,15.3,0000.0,0003.42,0014.45,0001.17
2021-11-14 11:21:00,,0830.1,5.00,0.00,22.8,22.2,00.0,31.7,24.7,15.2,0000.0,0003.35,0013.41,0001.17
2021-11-14 11:22:00,,0830.1,4.99,0.00,22.8,22.2,00.0,31.7,24.7,15.2,0000.0,0003.28,0013.64,0001.17
2021-11-14 11:23:00,,0830.0,5.00,0.00,22.8,22.2,00.0,31.7,24.7,15.2,0000.0,0003.27,0013.52,0001.17
2021-11-14 11:24:00,,0830.1,5.00,0.00,22.9,22.3,00.0,31.7,24.7,15.0,0000.0,0003.24,0014.53,0001.16
2021-11-14 11:25:00,,0830.1,5.01,0.00,22.9,22.3,00.0,31.8,24.7,15.0,0000.0,0003.22,0014.17,0001.15
2021-11-14 11:26:00,,0830.1,5.00,0.00,22.8,22.2,00.0,31.8,24.6,14.9,0000.0,0003.23,0013.61,0001.16
2021-11-14 11:27:00,,0830.1,5.01,0.00,22.8,22.1,00.0,31.8,24.6,14.5,0000.0,0003.24,0013.89,0001.16
2021-11-14 11:28:00,,0830.2,4.99,0.00,22.8,22.1,00.0,31.8,24.6,14.6,0000.0,0003.22,0013.70,0001.15
2021-11-14 11:29:00,,0830.2,5.01,0.00,22.8,22.1,00.0,31.8,24.6,14.9,0000.0,0003.17,0013.02,0001.15
2021-11-14 11:30:00,,0830.2,4.99,0.00,22.8,22.1,00.0,31.8,24.6,15.0,0000.0,0003.14,0012.59,0001.14
2021-11-14 11:31:00,,0830.2,5.01,0.00,22.8,22.1,00.0,31.8,24.6,14.8,0000.0,0003.13,0012.42,0001.13
2021-11-14 11:32:00,,0830.1,5.00,0.00,22.8,22.1,00.0,31.8,24.7,14.9,0000.0,0003.13,0011.97,0001.12
2021-11-14 11:33:00,,0830.1,5.00,0.00,22.8,22.1,00.0,31.8,24.6,15.0,0000.0,0003.18,0013.32,0001.13
2021-11-14 11:34:00,,0830.1,5.01,0.00,22.8,22.0,00.0,31.8,24.5,14.9,0000.0,0003.20,0013.78,0001.12
2021-11-14 11:35:00,,0830.1,4.99,0.00,22.7,22.0,00.0,31.8,24.5,14.9,0000.0,0003.20,0012.69,0001.11
2021-11-14 11:36:00,,0830.1,5.01,0.00,22.7,22.0,00.0,31.8,24.5,14.9,0000.0,0003.18,0011.63,0001.10
2021-11-14 11:37:00,,0830.0,5.00,0.00,22.7,22.0,00.0,31.8,24.5,14.8,0000.0,0003.10,0011.23,0001.09
2021-11-14 11:38:00,,0830.0,5.01,0.00,22.7,22.0,00.0,31.8,24.5,14.9,0000.0,0003.05,0011.34,0001.09
2021-11-14 11:39:00,,0830.1,5.00,0.00,22.7,22.0,00.0,31.8,24.5,14.7,0000.0,0003.08,0011.62,0001.09
2021-11-14 11:40:00,,0830.1,4.99,0.00,22.7,22.1,00.0,31.8,24.6,14.7,0000.0,0003.02,0011.58,0001.08
2021-11-14 11:41:00,,0830.1,5.00,0.00,22.7,22.0,00.0,31.8,24.6,14.7,0000.0,0003.01,0011.93,0001.07
2021-11-14 11:42:00,,0830.1,5.00,0.00,22.7,22.0,00.0,31.8,24.5,14.8,0000.0,0003.00,0011.92,0001.07
2021-11-14 11:43:00,,0830.2,5.01,0.00,22.7,22.0,00.0,31.8,24.5,14.7,0000.0,0002.96,0012.07,0001.05
2021-11-14 11:44:00,,0830.2,4.99,0.00,22.7,22.0,00.0,31.7,24.5,14.3,0000.0,0002.84,0010.89,0001.04
2021-11-14 11:45:00,,0830.1,5.01,0.00,22.7,22.0,00.0,31.7,24.5,14.2,0000.0,0002.82,0011.67,0001.03
2021-11-14 11:46:00,,0830.1,4.99,0.00,22.7,22.0,00.0,31.7,24.5,14.4,0000.0,0002.76,0012.10,0001.02
2021-11-14 11:47:00,,0830.1,5.00,0.00,22.7,22.0,00.0,31.7,24.5,14.5,0000.0,0002.79,0012.97,0001.01
2021-11-14 11:48:00,,0830.1,5.01,0.00,22.7,21.9,00.0,31.7,24.5,14.4,0000.0,0002.84,0013.15,0001.00
2021-11-14 11:49:00,,0830.1,5.01,0.00,22.7,21.9,00.0,31.7,24.4,14.3,0000.0,0002.81,0012.34,0000.99
2021-11-14 11:50:00,,0830.1,5.00,0.00,22.6,21.9,00.0,31.7,24.4,14.4,0000.0,0002.80,0012.63,0000.98
2021-11-14 11:51:00,,0830.1,5.02,0.00,22.6,21.9,00.0,31.7,24.3,14.4,0000.0,0002.82,0013.90,0000.98
2021-11-14 11:52:00,,0830.1,4.99,0.00,22.6,21.9,00.0,31.7,24.3,14.2,0000.0,0002.79,0013.58,0000.97
2021-11-14 11:53:00,,0830.1,5.00,0.00,22.6,21.8,00.0,31.7,24.3,14.1,0000.0,0002.75,0013.65,0000.95
2021-11-14 11:54:00,,0830.0,5.00,0.00,22.6,21.8,00.0,31.7,24.3,14.2,0000.0,0002.76,0013.73,0000.95
2021-11-14 11:55:00,,0830.1,5.00,0.00,22.5,21.8,00.0,31.6,24.3,14.1,0000.0,0002.77,0013.56,0000.93
2021-11-14 11:56:00,,0830.0,5.01,0.00,22.5,21.8,00.0,31.6,24.3,14.1,0000.0,0002.70,0012.15,0000.92
2021-11-14 11:57:00,,0830.0,4.98,0.00,22.6,21.8,00.0,31.6,24.4,14.0,0000.0,0002.62,0011.72,0000.92
2021-11-14 11:58:00,,0829.8,5.00,0.00,22.6,21.8,00.0,31.6,24.4,13.9,0000.0,0002.59,0010.80,0000.93
2021-11-14 11:59:00,,0829.8,5.01,0.00,22.6,21.9,00.0,31.6,24.4,13.8,0000.0,0002.55,0010.72,0000.93
